Back to catalog

STARLINK-31365

AliveCommunicationsVLEO
NORAD 58973·PAYLOAD·🇺🇸 United States

Launched Feb 15, 2024 from Vandenberg Space Force Base

Loading…

Next Passes (next 24 hours)

TLE

FreshSource: CelesTrak SupGP

Epoch: Sep 14, 2026, 21:39 UTC

1 58973C 24031J   26257.90256944 -.00057777  00000+0 -17071-2 0  2572
2 58973  53.1563 135.6253 0001309  86.9552 267.1333 15.34418163    12

Track STARLINK-31365 in real time with AllMySat

Download on the App Store